[[{"header":{"parameterUnit":"m.s-1","parameterCategory":1,"la1":30.2991,"la2":30.254,"lo1":-89.0895,"lo2":-89.0444,"dy":0.0017,"dx":0.0017,"nx":28,"ny":28,"refTime":"2024-03-16T09:00:00:Z","depth":0,"parameterNumber":2,"parameterNumberName":"U-component_of_WINDS"},"data":[0,0,0,0,0,0,0,0,0,0,0,0,0,0,0,0,0,0,0,0,0,0,0,0,0,0,0,0,0,0,0,0,0,0,0,0,0,0,0,0,0,0,0,0,0,0,0,0,0,0,0,0,0,0,0,0,0,0,-1.3963,-1.3962,0,-1.3894,-1.3893,-1.3893,-1.3843,-1.3843,-1.3843,-1.3842,-1.3769,-1.3768,-1.3766,0,0,0,0,0,0,0,0,0,0,0,0,0,-1.4049,-1.4048,-1.3963,-1.3962,-1.3961,-1.3894,-1.3893,-1.3892,-1.3843,-1.3843,-1.3842,-1.3842,-1.377,-1.3768,-1.3766,0,0,0,0,0,0,0,0,0,0,0,0,0,-1.3999,-1.4048,-1.3963,-1.3929,-1.3925,-1.3895,-1.3893,-1.3892,-1.3844,-1.3843,-1.3842,-1.3842,-1.377,-1.3768,-1.3766,-1.3763,0,0,-1.3759,-1.3757,0,0,0,0,0,0,0,0,-1.4002,-1.3996,-1.3935,-1.3931,-1.3927,-1.3877,-1.3897,-1.3849,-1.3844,-1.3874,-1.3842,-1.3842,-1.3805,-1.38,-1.3788,-1.376,-1.3756,-1.3758,-1.3757,-1.3756,-1.3755,0,0,0,0,0,0,0,-1.4006,-1.3999,-1.3936,-1.3934,-1.3929,-1.3916,-1.3908,-1.3888,-1.3844,-1.3872,-1.3868,-1.3861,-1.3803,-1.3791,-1.3786,-1.3755,-1.3758,-1.3756,-1.3755,-1.3754,-1.372,-1.3721,0,0,0,0,0,0,-1.4015,-1.4002,-1.3938,-1.3934,-1.3964,-1.3915,-1.3906,-1.3893,-1.3844,-1.3836,-1.3861,-1.3859,-1.3795,-1.3789,-1.3784,-1.3777,-1.3756,-1.3754,-1.3752,-1.372,-1.3721,-1.3721,0,0,0,0,0,0,-1.4017,-1.401,-1.3941,-1.3967,-1.3957,-1.3914,-1.39,-1.3892,-1.388,-1.3836,-1.3828,-1.3857,-1.3794,-1.3787,-1.3769,-1.3773,-1.3753,-1.375,-1.3719,-1.372,-1.3721,-1.3763,0,0,0,0,0,0,-1.402,-1.4011,-1.401,-1.3967,-1.3956,-1.3928,-1.39,-1.3891,-1.3876,-1.3872,-1.383,-1.3822,-1.3793,-1.3772,-1.3766,-1.377,-1.3749,-1.3719,-1.372,-1.3721,-1.3761,-1.3765,-1.3769,0,0,0,0,0,-1.4023,-1.4024,-1.401,-1.4002,-1.3954,-1.3928,-1.3921,-1.3889,-1.3877,-1.3875,-1.3847,-1.3824,-1.3774,-1.3771,-1.3764,-1.3766,-1.3718,-1.3719,-1.3721,-1.3759,-1.3765,-1.3769,0,0,0,0,0,0,-1.4067,-1.4018,-1.4002,-1.3989,-1.3963,-1.392,-1.3916,-1.3895,-1.3872,-1.3869,-1.3829,-1.3819,-1.3805,-1.3784,-1.3781,-1.3761,-1.3743,-1.3743,-1.3775,-1.378,-1.3784,-1.3788,-1.3747,0,0,0,0,0,-1.4076,-1.406,-1.4017,-1.401,-1.3998,-1.396,-1.3947,-1.3925,-1.3896,-1.3884,-1.3855,-1.3827,-1.3805,-1.3791,-1.3769,-1.3758,-1.3748,-1.3757,-1.3761,-1.3764,-1.3764,-1.3756,-1.3759,-1.3725,-1.3725,-1.3725,0,0,-1.4092,-1.4063,-1.4055,-1.4018,-1.3995,-1.3979,-1.3951,-1.3934,-1.3921,-1.3881,-1.3862,-1.384,-1.3806,-1.3792,-1.3784,-1.3774,-1.3771,-1.3766,-1.3769,-1.3766,-1.3758,-1.3761,-1.3764,-1.3726,-1.3726,-1.3726,0,0,-1.4114,-1.4091,-1.4083,-1.4061,-1.4027,-1.4002,-1.4,-1.396,-1.3944,-1.3925,-1.3894,-1.3878,-1.3841,-1.3818,-1.3802,-1.3817,-1.3794,-1.381,-1.383,-1.3823,-1.3826,-1.3828,-1.3832,-1.3834,-1.3811,-1.3811,-1.3811,0,-1.4139,-1.4114,-1.4081,-1.4066,-1.405,-1.4015,-1.4005,-1.3986,-1.3946,-1.3935,-1.3925,-1.3878,-1.3853,-1.3833,-1.3836,-1.3825,-1.382,-1.3814,-1.3828,-1.383,-1.3831,-1.3835,-1.3837,-1.3813,-1.3813,-1.3812,-1.3812,0,-1.4146,-1.4129,-1.4126,-1.409,-1.4073,-1.4062,-1.4026,-1.4013,-1.3993,-1.3968,-1.3949,-1.3918,-1.3888,-1.3882,-1.3861,-1.3858,-1.3853,-1.3836,-1.3817,-1.3838,-1.384,-1.3841,-1.3816,-1.3815,-1.3815,-1.3814,0,0,-1.4192,-1.4139,-1.4138,-1.4121,-1.4082,-1.4068,-1.4054,-1.4026,-1.4016,-1.399,-1.3977,-1.3948,-1.3932,-1.3913,-1.3889,-1.3884,-1.3896,-1.3867,-1.3866,-1.3873,-1.389,-1.3903,-1.3905,-1.3881,-1.3881,-1.3882,-1.3893,0,-1.4208,-1.4182,-1.4152,-1.4137,-1.412,-1.4087,-1.4075,-1.4049,-1.4026,-1.4008,-1.3982,-1.3962,-1.3943,-1.3931,-1.3924,-1.3896,-1.3899,-1.3895,-1.3868,-1.3867,-1.3876,-1.3906,-1.3919,-1.3931,-1.3894,-1.3894,-1.3894,0,-1.4222,-1.4199,-1.4182,-1.4144,-1.4136,-1.4126,-1.4098,-1.4082,-1.4052,-1.4035,-1.4015,-1.399,-1.3973,-1.3958,-1.3933,-1.3931,-1.3919,-1.3903,-1.3903,-1.3898,-1.3881,-1.3901,-1.3934,-1.3936,-1.3896,-1.3896,-1.3895,0,-1.4257,-1.4221,-1.4206,-1.4193,-1.4149,-1.4143,-1.4124,-1.4093,-1.4079,-1.4054,-1.4044,-1.4017,-1.4003,-1.3982,-1.395,-1.3942,-1.3929,-1.3911,-1.3914,-1.3915,-1.3912,-1.3913,-1.3943,-1.3906,-1.3906,-1.3906,-1.3906,0,-1.4276,-1.4267,-1.4222,-1.4212,-1.4201,-1.4167,-1.4156,-1.4134,-1.4107,-1.4092,-1.4062,-1.4049,-1.4008,-1.3989,-1.3964,-1.3948,-1.3942,-1.3927,-1.392,-1.3929,-1.3931,-1.3919,-1.3917,-1.3906,-1.3906,-1.3906,-1.3906,0,-1.4312,-1.4282,-1.4263,-1.4224,-1.4214,-1.4207,-1.4172,-1.4162,-1.4138,-1.4119,-1.4113,-1.4075,-1.4052,-1.4018,-1.3985,-1.3968,-1.3955,-1.3944,-1.3965,-1.3961,-1.3966,-1.3965,-1.3988,-1.3989,-1.3953,-1.3954,-1.3954,0,-1.4326,-1.4319,-1.4278,-1.4267,-1.4249,-1.4231,-1.4216,-1.4182,-1.4168,-1.4133,-1.4127,-1.4102,-1.4079,-1.4044,-1.4012,-1.3987,-1.3975,-1.3985,-1.3971,-1.398,-1.3974,-1.3974,-1.3973,-1.3988,-1.3988,-1.3989,-1.3989,0,-1.4354,-1.434,-1.432,-1.4294,-1.4278,-1.4256,-1.4233,-1.4225,-1.4186,-1.4171,-1.4147,-1.413,-1.4097,-1.4072,-1.4042,-1.4021,-1.3998,-1.3994,-1.3993,-1.4002,-1.4014,-1.4006,-1.3973,-1.3993,-1.3993,-1.3993,-1.3992,-1.3992,-1.4379,-1.437,-1.4341,-1.4319,-1.4299,-1.4278,-1.4266,-1.4241,-1.4221,-1.4192,-1.4173,-1.415,-1.412,-1.4078,-1.4058,-1.404,-1.403,-1.4029,-1.4029,-1.4029,-1.4031,-1.4018,-1.4034,-1.4034,-1.4034,-1.4034,-1.4034,0,-1.4404,-1.4384,-1.4365,-1.4334,-1.4317,-1.4298,-1.4272,-1.4258,-1.4239,-1.4214,-1.4193,-1.4166,-1.4142,-1.4109,-1.4082,-1.4073,-1.4062,-1.4067,-1.4067,-1.4062,-1.4042,-1.4045,-1.4077,-1.4077,-1.4077,-1.4077,-1.4077,-1.4077,-1.4415,-1.4399,-1.4382,-1.4355,-1.4335,-1.4313,-1.4299,-1.428,-1.4259,-1.4231,-1.4211,-1.419,-1.4161,-1.4132,-1.4109,-1.41,-1.4091,-1.4099,-1.4087,-1.4068,-1.4064,-1.406,-1.4063,-1.4098,-1.4098,-1.4109,-1.4109,-1.4109]},{"header":{"parameterUnit":"m.s-1","parameterCategory":1,"la1":30.2991,"la2":30.254,"lo1":-89.0895,"lo2":-89.0444,"dy":0.0017,"dx":0.0017,"nx":28,"ny":28,"refTime":"2024-03-16T09:00:00:Z","depth":0,"parameterNumber":3,"parameterNumberName":"V-component_of_WINDS"},"data":[0,0,0,0,0,0,0,0,0,0,0,0,0,0,0,0,0,0,0,0,0,0,0,0,0,0,0,0,0,0,0,0,0,0,0,0,0,0,0,0,0,0,0,0,0,0,0,0,0,0,0,0,0,0,0,0,0,0,-0.832,-0.832,0,-0.8365,-0.8365,-0.8366,-0.8378,-0.8378,-0.8378,-0.8377,-0.8422,-0.8423,-0.8424,0,0,0,0,0,0,0,0,0,0,0,0,0,-0.8243,-0.8244,-0.832,-0.832,-0.8321,-0.8365,-0.8365,-0.8366,-0.8378,-0.8378,-0.8377,-0.8377,-0.8421,-0.8423,-0.8425,0,0,0,0,0,0,0,0,0,0,0,0,0,-0.8281,-0.8245,-0.832,-0.8332,-0.8334,-0.8365,-0.8365,-0.8366,-0.8378,-0.8378,-0.8377,-0.8377,-0.8421,-0.8423,-0.8425,-0.8446,0,0,-0.8431,-0.8432,0,0,0,0,0,0,0,0,-0.8279,-0.8284,-0.833,-0.8332,-0.8333,-0.8365,-0.8355,-0.8393,-0.8378,-0.8361,-0.8377,-0.8377,-0.8403,-0.8407,-0.8416,-0.8448,-0.845,-0.8432,-0.8433,-0.8434,-0.8434,0,0,0,0,0,0,0,-0.8276,-0.8282,-0.8338,-0.8331,-0.8333,-0.8335,-0.834,-0.8362,-0.8384,-0.8363,-0.8364,-0.8369,-0.8404,-0.8414,-0.8417,-0.845,-0.8432,-0.8433,-0.8435,-0.8436,-0.8501,-0.8502,0,0,0,0,0,0,-0.8271,-0.8279,-0.8336,-0.8339,-0.8305,-0.8337,-0.8342,-0.8356,-0.8384,-0.8388,-0.8369,-0.8369,-0.841,-0.8415,-0.8419,-0.8445,-0.8434,-0.8436,-0.8437,-0.8501,-0.8502,-0.8502,0,0,0,0,0,0,-0.827,-0.8276,-0.8334,-0.831,-0.8317,-0.8339,-0.8353,-0.8357,-0.8367,-0.8389,-0.8392,-0.8375,-0.841,-0.8416,-0.8439,-0.8447,-0.8437,-0.8439,-0.85,-0.8501,-0.8502,-0.8498,0,0,0,0,0,0,-0.8267,-0.8276,-0.8284,-0.831,-0.8318,-0.8354,-0.8354,-0.8358,-0.837,-0.8371,-0.8395,-0.8399,-0.841,-0.8436,-0.8441,-0.8449,-0.844,-0.85,-0.8501,-0.8502,-0.8497,-0.8498,-0.8499,0,0,0,0,0,-0.8265,-0.8281,-0.8285,-0.8291,-0.833,-0.8355,-0.836,-0.8373,-0.8371,-0.8379,-0.8394,-0.8398,-0.8445,-0.8438,-0.8444,-0.8453,-0.8499,-0.85,-0.8502,-0.8497,-0.8498,-0.8499,0,0,0,0,0,0,-0.8255,-0.8285,-0.8289,-0.8314,-0.8332,-0.8357,-0.8368,-0.8374,-0.8392,-0.8392,-0.8407,-0.8413,-0.8435,-0.8446,-0.8438,-0.8475,-0.8472,-0.8475,-0.8466,-0.8468,-0.8469,-0.8465,-0.8442,0,0,0,0,0,-0.8257,-0.8275,-0.8299,-0.8319,-0.8328,-0.8346,-0.8358,-0.8367,-0.8385,-0.8393,-0.8409,-0.8426,-0.8445,-0.8457,-0.8476,-0.8499,-0.8504,-0.8508,-0.8509,-0.851,-0.8511,-0.8524,-0.8526,-0.8506,-0.8505,-0.8505,0,0,-0.8259,-0.8277,-0.8287,-0.8318,-0.8333,-0.8351,-0.8353,-0.8372,-0.8386,-0.8396,-0.8419,-0.8431,-0.8452,-0.8475,-0.8486,-0.8485,-0.8518,-0.8511,-0.8511,-0.8513,-0.8525,-0.8527,-0.8529,-0.8506,-0.8506,-0.8506,0,0,-0.8272,-0.8288,-0.8306,-0.8321,-0.8343,-0.8356,-0.836,-0.8384,-0.8393,-0.8416,-0.8424,-0.844,-0.8472,-0.8486,-0.8498,-0.8516,-0.8521,-0.8522,-0.8526,-0.8538,-0.854,-0.8542,-0.8548,-0.855,-0.8523,-0.8523,-0.8523,0,-0.8271,-0.83,-0.8314,-0.8333,-0.8346,-0.8357,-0.8375,-0.8388,-0.8416,-0.8424,-0.8423,-0.8463,-0.8478,-0.8505,-0.8509,-0.8518,-0.8523,-0.8519,-0.8539,-0.854,-0.8542,-0.8548,-0.855,-0.8523,-0.8523,-0.8523,-0.8523,0,-0.8298,-0.8318,-0.833,-0.8356,-0.837,-0.8389,-0.8406,-0.8418,-0.8425,-0.8437,-0.8461,-0.8479,-0.8501,-0.8508,-0.8515,-0.8536,-0.8535,-0.8536,-0.8534,-0.8544,-0.855,-0.8552,-0.8523,-0.8523,-0.8523,-0.8523,0,0,-0.8307,-0.8341,-0.8345,-0.8357,-0.8383,-0.8398,-0.8417,-0.8439,-0.8449,-0.8468,-0.8483,-0.851,-0.8512,-0.8524,-0.8533,-0.8544,-0.8557,-0.8544,-0.8545,-0.8546,-0.858,-0.8579,-0.8582,-0.8561,-0.8561,-0.8562,-0.8579,0,-0.8323,-0.8358,-0.8371,-0.8399,-0.8417,-0.8427,-0.8443,-0.846,-0.8472,-0.8488,-0.8501,-0.852,-0.852,-0.8528,-0.854,-0.8553,-0.8564,-0.8552,-0.8575,-0.8575,-0.8569,-0.8585,-0.8584,-0.8599,-0.8581,-0.8581,-0.8582,0,-0.8347,-0.8366,-0.8396,-0.8419,-0.8427,-0.8441,-0.8463,-0.8479,-0.8498,-0.8506,-0.852,-0.8528,-0.8548,-0.8544,-0.8571,-0.8562,-0.8572,-0.858,-0.8581,-0.8583,-0.8579,-0.8587,-0.8604,-0.8606,-0.8586,-0.8585,-0.8585,0,-0.835,-0.8383,-0.8405,-0.8415,-0.8443,-0.8453,-0.8465,-0.8484,-0.8496,-0.8514,-0.8522,-0.8542,-0.8553,-0.8568,-0.8582,-0.8578,-0.8607,-0.8604,-0.8613,-0.8613,-0.8619,-0.8618,-0.8637,-0.8625,-0.8625,-0.8625,-0.8625,0,-0.8367,-0.8384,-0.8407,-0.842,-0.844,-0.8455,-0.8474,-0.8487,-0.8504,-0.8519,-0.8529,-0.8543,-0.856,-0.8576,-0.8587,-0.8607,-0.8612,-0.8618,-0.862,-0.8617,-0.8616,-0.8624,-0.8623,-0.8626,-0.8626,-0.8626,-0.8626,0,-0.8373,-0.8389,-0.8414,-0.8438,-0.8445,-0.8458,-0.8479,-0.8492,-0.8504,-0.8524,-0.8529,-0.8548,-0.8568,-0.8582,-0.8608,-0.8615,-0.8636,-0.8639,-0.863,-0.8631,-0.8639,-0.8638,-0.8663,-0.8667,-0.8653,-0.8653,-0.8653,0,-0.8383,-0.8397,-0.8423,-0.8434,-0.8446,-0.8464,-0.8477,-0.8492,-0.8505,-0.8528,-0.8538,-0.8559,-0.8576,-0.8607,-0.8622,-0.8642,-0.8645,-0.8652,-0.8648,-0.8644,-0.8644,-0.8643,-0.8645,-0.8653,-0.8653,-0.8653,-0.8653,0,-0.8398,-0.8405,-0.8423,-0.8444,-0.8459,-0.8477,-0.8494,-0.8502,-0.852,-0.8534,-0.8555,-0.8568,-0.8594,-0.8614,-0.8635,-0.8646,-0.8652,-0.8654,-0.8657,-0.8654,-0.8648,-0.8651,-0.8631,-0.8653,-0.8653,-0.8653,-0.8653,-0.8653,-0.8406,-0.8419,-0.8439,-0.8459,-0.8474,-0.849,-0.8503,-0.8517,-0.8535,-0.8558,-0.8565,-0.8586,-0.8605,-0.8634,-0.8645,-0.8662,-0.8661,-0.8666,-0.8667,-0.8668,-0.8667,-0.8645,-0.8665,-0.8665,-0.8665,-0.8665,-0.8665,0,-0.8422,-0.8435,-0.8453,-0.8477,-0.8493,-0.8498,-0.8517,-0.853,-0.8548,-0.8565,-0.8582,-0.8606,-0.8625,-0.8642,-0.8662,-0.8672,-0.8675,-0.8676,-0.8676,-0.8678,-0.8666,-0.8662,-0.8673,-0.8673,-0.8673,-0.8673,-0.8673,-0.8673,-0.8431,-0.8453,-0.8463,-0.8492,-0.8505,-0.8526,-0.8537,-0.8551,-0.8565,-0.8591,-0.8607,-0.8618,-0.8635,-0.8656,-0.8674,-0.8679,-0.8685,-0.8686,-0.8691,-0.868,-0.8679,-0.8678,-0.8674,-0.8688,-0.8688,-0.8702,-0.8702,-0.8702]}]]